カタログに戻る

EUTE 36D

運用中通信GEO
NORAD 59346·PAYLOAD·🇪🇺 EU

打ち上げ Mar 30, 2024 から Cape Canaveral Space Force Station

Loading…

TLE

最新Source: Space-Track

元期: Sep 14, 2026, 13:58 UTC

1 59346U 24059A   26257.58220771  .00000148  00000-0  00000-0 0  9994
2 59346   0.0014 172.7074 0000192 245.1581 181.1614  1.00270725  9049

AllMySatでEUTE 36Dをリアルタイム追跡

Download on the App Store